EST,Max TemperatureF,Mean TemperatureF,Min TemperatureF,Max Dew PointF,MeanDew PointF,Min DewpointF,Max Humidity, Mean Humidity, Min Humidity, Max Sea Level PressureIn, Mean Sea Level PressureIn, Min Sea Level PressureIn, Max VisibilityMiles, Mean VisibilityMiles, Min VisibilityMiles, Max Wind SpeedMPH, Mean Wind SpeedMPH, Max Gust SpeedMPH,PrecipitationIn, CloudCover, Events, WindDirDegrees
2012-12-1,28,27,26,27,20,7,93,76,40,30.69,30.60,30.55,10,6,1,7,5,,0.01,8,Snow,1
2012-12-2,50,39,28,45,34,26,100,90,74,30.52,30.29,30.07,10,4,0,13,3,,0.00,7,Fog-Rain,238
2012-12-3,57,44,30,45,37,28,100,82,49,30.33,30.20,30.05,10,8,0,20,7,28,0.00,1,Fog,267
2012-12-4,57,42,27,54,42,26,100,92,84,30.36,30.22,29.99,10,7,0,14,3,36,0.00,7,Fog-Rain,198
2012-12-5,57,45,30,54,37,13,88,65,46,30.18,29.97,29.83,10,10,10,18,12,31,0.01,5,Rain,275
2012-12-6,39,30,21,16,15,13,81,56,36,30.36,30.31,30.19,10,10,10,12,7,20,0.00,1,,309
2012-12-7,43,32,21,40,31,18,100,83,65,30.30,30.16,30.02,10,9,6,7,2,,0.03,7,Rain,195
2012-12-8,43,41,39,41,40,39,100,94,87,30.06,29.95,29.86,7,3,1,7,1,,0.26,8,Rain,19
2012-12-9,44,37,30,41,34,29,100,85,55,30.33,30.21,29.99,10,8,0,8,4,17,0.08,3,Fog-Rain,293
2012-12-10,59,48,37,57,48,37,100,97,89,30.15,29.73,29.48,10,4,0,9,4,20,0.38,8,Fog-Rain,168
2012-12-11,54,43,30,49,34,20,93,73,51,30.19,29.85,29.56,10,10,10,15,8,18,0.02,5,Rain,292
2012-12-12,37,30,24,22,20,19,88,70,48,30.47,30.37,30.21,10,10,10,6,3,,0.00,1,,256
2012-12-13,42,32,21,26,21,18,89,75,43,30.49,30.43,30.27,10,10,9,6,1,,0.00,0,,270
2012-12-14,48,34,21,26,21,15,89,61,26,30.27,30.18,30.04,10,10,9,13,4,18,0.00,0,,253
2012-12-15,41,32,24,24,20,13,89,66,32,30.38,30.32,30.22,10,10,10,12,3,,0.00,1,,354
2012-12-16,30,28,26,28,23,16,93,85,63,30.36,30.20,30.08,10,4,0,7,4,,0.28,8,Fog-Rain-Snow,3
2012-12-17,33,30,27,32,29,25,100,92,86,30.12,29.99,29.84,5,2,1,9,6,,0.24,8,Rain,1
2012-12-18,45,39,33,45,39,32,100,96,92,29.83,29.51,29.41,10,4,0,20,6,16,0.60,8,Fog-Rain,294
2012-12-19,46,41,36,37,31,27,89,70,54,30.07,29.67,29.44,10,10,10,23,11,32,0.00,7,,304
2012-12-20,39,32,25,34,28,22,93,76,58,30.26,30.15,30.04,10,9,5,8,4,,0.00,6,Rain,55
2012-12-21,53,43,33,54,40,33,100,89,76,30.02,29.46,29.06,10,8,2,28,12,41,0.63,8,Rain,126
2012-12-22,37,32,28,32,22,13,92,67,48,29.68,29.43,29.26,10,10,7,18,10,30,0.00,5,Snow,255
2012-12-23,37,32,26,24,18,13,82,61,41,29.90,29.83,29.69,10,10,10,15,8,26,0.00,2,,248
2012-12-24,39,32,25,23,19,15,85,63,38,30.10,30.04,29.91,10,10,10,14,5,,0.00,0,,258
2012-12-25,33,28,23,28,24,15,93,83,69,30.27,30.09,30.01,10,8,2,9,3,,0.00,6,Snow,327
2012-12-26,35,25,15,35,23,12,100,81,46,30.36,30.22,29.94,10,8,1,16,4,23,0.22,4,Rain-Snow,60
2012-12-27,43,36,30,43,36,28,100,99,89,29.90,29.50,29.27,10,4,1,23,16,34,1.78,8,Rain-Snow,7
2012-12-28,35,30,26,27,22,18,89,74,61,30.05,29.90,29.63,10,10,10,18,13,31,0.00,2,,290
2012-12-29,30,26,23,31,27,22,100,94,76,30.05,29.71,29.40,10,5,0,15,5,18,0.28,6,Fog-Snow,358
2012-12-30,28,24,19,28,17,6,100,72,49,30.01,29.69,29.43,10,8,1,24,15,33,0.01,4,Snow,301
2012-12-31,32,26,19,23,17,7,74,67,55,30.07,29.96,29.81,10,10,10,16,10,25,0.00,3,,245